GW6771 Weather Reports


Display with metric or nautical units.
time (UTC)temp
F
wind
direction
speed
MPH
gust
MPH
rain 1hr
in
rain 24hr
in
rain mn
in
humidity
%
barometer
mb
20260507114016 59 0 4.0 7.0 0.00 0.00 0.00 59 1015.5
20260507113036 60 45 6.0 9.0 0.00 0.00 0.00 62 1015.6
20260507112016 60 68 4.0 9.0 0.00 0.00 0.00 62 1015.7
20260507111016 60 90 4.0 8.0 0.00 0.00 0.00 61 1015.7
20260507110016 59 90 3.0 5.0 0.00 0.00 0.00 59 1015.7
20260507105016 59 90 4.0 8.0 0.00 0.00 0.00 60 1015.7
20260507104036 59 293 1.0 3.0 0.00 0.00 0.00 59 1015.8
20260507103016 59 0 5.0 8.0 0.00 0.00 0.00 58 1015.9
20260507102016 58 338 3.0 8.0 0.00 0.00 0.00 63 1015.9
20260507101016 58 23 5.0 9.0 0.00 0.00 0.00 61 1015.9
20260507100016 58 68 3.0 5.0 0.00 0.00 0.00 63 1015.9
20260507095036 57 23 3.0 6.0 0.00 0.00 0.00 59 1015.8
20260507094016 58 23 3.0 10.0 0.00 0.00 0.00 62 1015.9
20260507093016 57 315 3.0 5.0 0.00 0.00 0.00 64 1015.8
20260507092016 57 338 5.0 6.0 0.00 0.00 0.00 64 1015.8
20260507091016 56 338 2.0 9.0 0.00 0.00 0.00 69 1015.7
20260507090016 56 338 5.0 10.0 0.00 0.00 0.00 73 1015.7
20260507085036 55 338 2.0 5.0 0.00 0.00 0.00 75 1015.6
20260507084036 55 68 2.0 5.0 0.00 0.00 0.00 76 1015.7
20260507083016 54 338 3.0 5.0 0.00 0.00 0.00 82 1015.6
20260507082016 54 338 2.0 6.0 0.00 0.00 0.00 86 1015.6
20260507081036 53 338 3.0 6.0 0.00 0.00 0.00 89 1015.7
20260507080016 52 0 2.0 3.0 0.00 0.00 0.00 90 1015.5
20260507075016 51 0 3.0 4.0 0.00 0.00 0.00 91 1015.7
20260507074036 50 0 2.0 4.0 0.00 0.00 0.00 93 1015.6
20260507073016 50 315 2.0 5.0 0.00 0.00 0.00 94 1015.5
20260507072016 48 338 1.0 2.0 0.00 0.00 0.00 94 1015.5
20260507071016 46 0.0 0.0 0.00 0.00 0.00 94 1015.4
20260507070016 45 0.0 0.0 0.00 0.00 0.00 94 1015.4
20260507065016 45 0.0 0.0 0.00 0.00 0.00 94 1015.4
20260507064016 45 0.0 0.0 0.00 0.00 0.00 94 1015.3
20260507063016 45 0.0 0.0 0.00 0.00 0.00 94 1015.2
20260507062016 45 0.0 0.0 0.00 0.01 0.00 94 1015.1
20260507061016 45 0.0 0.0 0.00 0.01 0.00 94 1015.1
20260507060036 45 0.0 0.0 0.00 0.01 0.00 95 1015.0
20260507055036 45 338 3.0 4.0 0.00 0.01 0.00 95 1014.9
20260507054036 43 23 2.0 4.0 0.00 0.01 0.00 94 1014.8
20260507053016 42 23 3.0 4.0 0.00 0.01 0.00 94 1014.8
20260507052056 42 0 4.0 4.0 0.00 0.01 0.00 94 1014.7
20260507051016 41 0 5.0 6.0 0.00 0.01 0.00 94 1014.6
20260507050016 41 0 6.0 8.0 0.00 0.01 0.00 93 1014.6
20260507045015 42 0 5.0 5.0 0.00 0.02 0.00 93 1014.6
20260507044015 42 338 4.0 5.0 0.00 0.02 0.00 93 1014.5
20260507043036 43 338 4.0 5.0 0.00 0.02 0.00 93 1014.4
20260507042036 43 338 5.0 7.0 0.00 0.02 0.00 94 1014.3
20260507041016 43 338 6.0 8.0 0.00 0.02 0.00 94 1014.3
20260507040016 43 338 6.0 7.0 0.00 0.02 0.00 94 1014.3
20260507035015 43 338 5.0 7.0 0.00 0.03 0.00 93 1014.3
20260507034036 43 338 5.0 6.0 0.00 0.03 0.00 93 1014.2
20260507033015 43 338 4.0 6.0 0.00 0.04 0.00 93 1014.2
20260507032015 43 338 4.0 6.0 0.00 0.04 0.00 93 1014.2
20260507031015 43 338 4.0 5.0 0.00 0.05 0.00 93 1014.2
20260507030015 43 338 4.0 6.0 0.00 0.05 0.00 93 1014.4
20260507025015 43 315 4.0 6.0 0.00 0.06 0.00 93 1014.3
20260507024035 43 315 3.0 5.0 0.00 0.06 0.00 93 1014.4
20260507023015 43 315 4.0 6.0 0.00 0.06 0.00 93 1014.4
20260507022015 43 315 4.0 5.0 0.00 0.06 0.00 93 1014.5
20260507021015 43 315 4.0 6.0 0.00 0.07 0.00 93 1014.3
20260507020015 43 315 4.0 6.0 0.00 0.07 0.00 92 1014.2
20260507015017 43 315 4.0 6.0 0.00 0.07 0.00 92 1014.1
20260507014017 43 315 4.0 5.0 0.00 0.07 0.00 92 1014.1
20260507013017 43 315 3.0 5.0 0.00 0.08 0.00 91 1014.0
20260507012017 44 338 4.0 6.0 0.00 0.08 0.00 92 1014.0
20260507011017 44 315 4.0 6.0 0.00 0.08 0.00 92 1014.0
20260507010037 44 315 4.0 6.0 0.00 0.09 0.00 92 1014.0
20260507005017 44 315 4.0 6.0 0.00 0.09 0.00 92 1014.0
20260507004017 44 315 5.0 7.0 0.00 0.09 0.00 92 1014.0
20260507003017 44 315 5.0 7.0 0.00 0.09 0.00 92 1014.0
20260507002017 44 315 5.0 7.0 0.00 0.09 0.00 92 1014.1
20260507001017 44 315 4.0 6.0 0.00 0.10 0.00 92 1014.0
20260507000017 44 315 4.0 6.0 0.00 0.10 0.00 92 1014.0
20260506235017 44 338 5.0 7.0 0.00 0.10 0.00 91 1014.0
20260506234017 44 315 5.0 6.0 0.00 0.10 0.00 91 1014.0
20260506233037 44 315 5.0 6.0 0.00 0.10 0.00 91 1013.9
20260506232017 44 315 4.0 6.0 0.00 0.11 0.00 91 1013.9
20260506231017 45 338 5.0 8.0 0.00 0.11 0.00 91 1013.9
20260506230017 45 315 4.0 7.0 0.00 0.11 0.00 92 1013.9
20260506225057 45 315 4.0 5.0 0.00 0.11 0.00 92 1013.9
20260506224017 45 315 4.0 6.0 0.00 0.12 0.00 92 1013.9
20260506223017 44 315 4.0 6.0 0.00 0.12 0.00 92 1013.8
20260506222037 44 315 4.0 7.0 0.00 0.13 0.00 92 1013.6
20260506221017 44 338 5.0 7.0 0.00 0.13 0.00 92 1013.7
20260506220017 44 338 5.0 8.0 0.00 0.13 0.13 91 1013.5
20260506215016 44 338 5.0 8.0 0.00 0.14 0.13 91 1013.4
20260506214015 43 338 6.0 9.0 0.00 0.15 0.13 91 1013.4
20260506213015 44 0 6.0 8.0 0.00 0.16 0.13 91 1013.3
20260506212055 43 0 6.0 8.0 0.00 0.17 0.13 90 1013.3
20260506211015 44 0 5.0 7.0 0.00 0.19 0.13 90 1013.2
20260506210015 44 0 5.0 7.0 0.00 0.20 0.13 89 1013.1
20260506205035 44 0 7.0 9.0 0.00 0.24 0.13 89 1013.1
20260506204035 45 0 6.0 8.0 0.00 0.25 0.13 89 1013.0
20260506203015 45 0 5.0 7.0 0.00 0.26 0.13 88 1013.0
20260506202015 45 0 6.0 7.0 0.00 0.27 0.13 88 1012.9
20260506201017 45 0 7.0 9.0 0.00 0.28 0.13 87 1012.8
20260506200017 46 0 7.0 9.0 0.00 0.28 0.13 87 1012.8
20260506195017 46 0 7.0 8.0 0.00 0.28 0.13 85 1012.6
20260506194017 47 0 7.0 9.0 0.00 0.30 0.13 83 1012.5
20260506193017 48 0 8.0 10.0 0.00 0.32 0.13 81 1012.3
20260506192017 49 338 8.0 10.0 0.00 0.35 0.13 79 1012.3
20260506191017 49 338 8.0 11.0 0.00 0.37 0.13 78 1012.2
20260506190018 50 338 8.0 11.0 0.00 0.39 0.13 77 1012.0
20260506185017 51 338 4.0 10.0 0.00 0.42 0.13 76 1012.1
20260506184017 51 338 5.0 8.0 0.00 0.43 0.13 75 1011.9
20260506183017 52 338 7.0 10.0 0.00 0.44 0.13 73 1011.7
20260506182058 52 338 8.0 12.0 0.00 0.45 0.13 73 1011.7
20260506181017 52 338 9.0 15.0 0.00 0.46 0.13 73 1011.6
20260506180017 52 338 6.0 11.0 0.00 0.47 0.13 77 1011.4
20260506175017 52 0 7.0 11.0 0.00 0.50 0.13 78 1011.4
20260506174017 52 0 7.0 9.0 0.00 0.51 0.13 79 1011.3
20260506173037 52 0 9.0 11.0 0.00 0.52 0.13 76 1011.2
20260506172017 53 0 10.0 12.0 0.00 0.54 0.13 75 1011.1
20260506171037 54 0 11.0 17.0 0.00 0.55 0.13 71 1011.1
20260506170017 55 0 14.0 19.0 0.00 0.57 0.13 68 1011.1
20260506165017 57 338 11.0 16.0 0.00 0.57 0.13 67 1011.1
20260506164017 57 0 11.0 16.0 0.00 0.57 0.13 68 1011.1
20260506163017 56 0 13.0 19.0 0.00 0.57 0.13 70 1010.9
20260506162017 56 0 14.0 19.0 0.00 0.57 0.13 72 1010.9
20260506161017 54 0 12.0 15.0 0.00 0.57 0.13 76 1010.9
20260506160037 54 23 12.0 16.0 0.00 0.58 0.13 76 1010.9
20260506155017 56 0 10.0 15.0 0.00 0.59 0.13 72 1010.9
20260506154057 56 23 10.0 15.0 0.00 0.60 0.13 74 1011.0
20260506153017 56 23 11.0 16.0 0.00 0.62 0.13 75 1010.9
20260506152117 55 23 11.0 16.0 0.00 0.64 0.13 75 1011.0
20260506151017 56 23 11.0 17.0 0.00 0.65 0.13 74 1010.9
20260506150017 55 23 12.0 17.0 0.00 0.66 0.13 74 1010.9
20260506145017 56 23 13.0 18.0 0.00 0.68 0.13 70 1010.8
20260506144017 59 0 12.0 16.0 0.00 0.69 0.13 65 1010.8
20260506143117 59 338 14.0 20.0 0.00 0.69 0.13 63 1010.6
20260506142017 59 338 16.0 21.0 0.00 0.71 0.13 63 1010.7
20260506141017 59 338 14.0 20.0 0.00 0.72 0.13 65 1010.6
20260506140037 59 0 13.0 19.0 0.00 0.73 0.13 68 1010.6
20260506135017 58 338 11.0 16.0 0.00 0.75 0.13 68 1010.7
20260506134017 57 0 8.0 11.0 0.00 0.76 0.13 72 1010.7
20260506133017 57 0 10.0 14.0 0.00 0.77 0.13 70 1010.8
20260506132017 57 0 8.0 12.0 0.00 0.78 0.13 72 1010.9
20260506131017 56 0 10.0 13.0 0.00 0.78 0.13 73 1010.8
20260506130016 56 0 9.0 13.0 0.00 0.79 0.13 71 1010.8
20260506125017 57 0 10.0 14.0 0.00 0.80 0.13 71 1010.7
20260506124017 57 338 10.0 14.0 0.00 0.80 0.13 71 1010.6
20260506123016 57 0 11.0 15.0 0.00 0.80 0.13 72 1010.6
20260506122016 57 338 11.0 15.0 0.00 0.80 0.13 71 1010.6
20260506121036 57 0 13.0 17.0 0.00 0.80 0.13 73 1010.5
20260506120017 57 0 12.0 16.0 0.00 0.80 0.13 74 1010.6
20260506115016 57 0 10.0 15.0 0.00 0.80 0.13 75 1010.6